TimeCDT,TemperatureF,Dew PointF,Humidity,Sea Level PressureIn,VisibilityMPH,Wind Direction,Wind SpeedMPH,Gust SpeedMPH,PrecipitationIn,Events,Conditions,WindDirDegrees,DateUTC
12:53 AM,59.0,55.0,87,30.06,10.0,ESE,3.5,-,N/A,,Clear,110,2013-09-04 05:53:00
1:53 AM,59.0,55.0,87,30.06,10.0,Calm,Calm,-,N/A,,Clear,0,2013-09-04 06:53:00
2:53 AM,57.0,54.0,89,30.07,10.0,Calm,Calm,-,N/A,,Clear,0,2013-09-04 07:53:00
3:53 AM,55.9,54.0,93,30.08,10.0,Calm,Calm,-,N/A,,Clear,0,2013-09-04 08:53:00
4:53 AM,55.0,53.1,93,30.09,10.0,ESE,3.5,-,N/A,,Clear,120,2013-09-04 09:53:00
5:53 AM,55.0,53.1,93,30.10,10.0,East,3.5,-,N/A,,Clear,100,2013-09-04 10:53:00
6:53 AM,55.0,52.0,89,30.12,10.0,ESE,3.5,-,N/A,,Clear,110,2013-09-04 11:53:00
7:53 AM,57.9,54.0,87,30.13,10.0,Calm,Calm,-,N/A,,Clear,0,2013-09-04 12:53:00
8:53 AM,64.9,57.0,75,30.13,10.0,Calm,Calm,-,N/A,,Clear,0,2013-09-04 13:53:00
9:53 AM,73.0,57.9,59,30.13,10.0,SW,5.8,-,N/A,,Clear,230,2013-09-04 14:53:00
10:53 AM,79.0,60.1,52,30.14,10.0,WSW,5.8,-,N/A,,Clear,250,2013-09-04 15:53:00
11:53 AM,82.0,60.1,47,30.13,10.0,WSW,8.1,-,N/A,,Clear,250,2013-09-04 16:53:00
12:53 PM,84.9,59.0,41,30.13,10.0,WSW,6.9,-,N/A,,Clear,250,2013-09-04 17:53:00
1:53 PM,86.0,60.1,41,30.11,10.0,West,5.8,-,N/A,,Clear,260,2013-09-04 18:53:00
2:53 PM,87.1,60.1,40,30.09,10.0,West,6.9,-,N/A,,Clear,260,2013-09-04 19:53:00
3:53 PM,89.1,61.0,39,30.08,10.0,West,4.6,-,N/A,,Clear,280,2013-09-04 20:53:00
4:53 PM,89.1,61.0,39,30.07,10.0,NW,5.8,-,N/A,,Clear,310,2013-09-04 21:53:00
5:53 PM,87.1,62.1,43,30.07,10.0,WNW,3.5,-,N/A,,Clear,290,2013-09-04 22:53:00
6:53 PM,82.9,66.0,56,30.07,10.0,Calm,Calm,-,N/A,,Clear,0,2013-09-04 23:53:00
7:53 PM,79.0,64.0,60,30.08,10.0,SW,3.5,-,N/A,,Clear,220,2013-09-05 00:53:00
8:53 PM,77.0,64.0,64,30.09,10.0,Calm,Calm,-,N/A,,Clear,0,2013-09-05 01:53:00
9:53 PM,73.0,64.0,73,30.09,10.0,Calm,Calm,-,N/A,,Clear,0,2013-09-05 02:53:00
10:53 PM,70.0,64.0,81,30.11,10.0,Calm,Calm,-,N/A,,Clear,0,2013-09-05 03:53:00
11:53 PM,69.1,63.0,81,30.10,10.0,Calm,Calm,-,N/A,,Clear,0,2013-09-05 04:53:00